Location: Foulognes
(49.1413°N, 0.8183°W)
Time: 19:29:40
(UTC+00:00)

Cosmos 2084 - Pass Details

Date: 21 October 2019
Orbit: 555 x 628 km, 62.8° (Epoch: 17 November)

Event Time Altitude Azimuth Distance (km) Brightness Sun altitude
Rises 17:32:54 0° 237° (WSW) 2,896 8.5 -5.7°
Reaches altitude 10° 17:35:15 10° 243° (WSW) 1,986 7.6 -6.1°
Maximum altitude 17:39:38 51° 319° (NW) 781 4.3 -6.8°
Drops below altitude 10° 17:43:58 10° 36° (NE) 1,959 5.7 -7.5°
Enters shadow 17:45:42 - 41° (NE) 2,624 6.3 -7.8°
